This is the latest recevied weather packets stored in our database for station/object EA1AHA-13. If no packets are shown the sender has not sent any weather packets the latest 1 day(s).
| Time | Temp. | Humidity | Pressure | Rain* | Wind** | Luminosity | Snow |
|---|---|---|---|---|---|---|---|
| 1778001965 | 14.44° C | 79% | 1013.6 hPa | 0 mm | 2.68 m/s, 292° | - | - |
| 1778001389 | 14.44° C | 77% | 1013.5 hPa | 0 mm | 3.58 m/s, 337° | - | - |
| 1778000765 | 15° C | 73% | 1013.4 hPa | 0 mm | 2.68 m/s, 157° | - | - |
| 1778000188 | 15° C | 72% | 1013.4 hPa | 0 mm | 2.24 m/s, 337° | - | - |
| 1777999565 | 15.56° C | 74% | 1013.5 hPa | 0 mm | 1.79 m/s, 292° | - | - |
| 1777998989 | 15.56° C | 73% | 1013.4 hPa | 0 mm | 3.58 m/s, 315° | - | - |
| 1777998366 | 15° C | 73% | 1013.5 hPa | 0 mm | 2.68 m/s, 180° | - | - |
| 1777997790 | 15° C | 75% | 1013.6 hPa | 0 mm | 1.79 m/s, 315° | - | - |
| 1777997164 | 14.44° C | 77% | 1013.3 hPa | 0 mm | 2.68 m/s, 22° | - | - |
| 1777996589 | 14.44° C | 77% | 1013.3 hPa | 0 mm | 2.24 m/s, 315° | - | - |
| 1777995965 | 15° C | 75% | 1013.2 hPa | 0 mm | 2.24 m/s, 202° | - | - |
| 1777995388 | 15° C | 75% | 1013.2 hPa | 0 mm | 2.68 m/s, 157° | - | - |
| 1777994773 | 15.56° C | 75% | 1013.5 hPa | 0 mm | 2.68 m/s, 315° | - | - |
| 1777994189 | 15° C | 75% | 1013.4 hPa | 0 mm | 4.02 m/s, 112° | - | - |
| 1777993565 | 15° C | 76% | 1013.1 hPa | 0 mm | 4.92 m/s, 0° | - | - |
| 1777992989 | 15° C | 77% | 1013.4 hPa | 0 mm | 2.68 m/s, 225° | - | - |
| 1777992364 | 15.56° C | 75% | 1013.3 hPa | 0 mm | 4.02 m/s, 315° | - | - |
| 1777991789 | 15.56° C | 75% | 1013.4 hPa | 0 mm | 5.81 m/s, 337° | - | - |
| 1777991165 | 16.11° C | 73% | 1013.4 hPa | 0 mm | 4.02 m/s, 315° | - | - |
| 1777990589 | 15° C | 74% | 1013.5 hPa | 0 mm | 4.92 m/s, 337° | - | - |
| 1777989964 | 15° C | 76% | 1013.4 hPa | 0 mm | 4.02 m/s, 247° | - | - |
| 1777989389 | 15.56° C | 75% | 1013.1 hPa | 0 mm | 4.92 m/s, 315° | - | - |
| 1777988764 | 15° C | 76% | 1013.3 hPa | 0 mm | 3.13 m/s, 337° | - | - |
| 1777988189 | 15.56° C | 73% | 1013.3 hPa | 0 mm | 5.36 m/s, 112° | - | - |
| 1777987565 | 15.56° C | 69% | 1013 hPa | 0 mm | 2.68 m/s, 315° | - | - |
* Rain latest hour (hover to see other rain measurements)
** Current wind speed in m/s (hover to see current wind gust speed)